Regional Weather Roundup
Issued by NWS Sioux Falls, SD

Home | Current Version | Previous Version | Graphics & Text | Print | Product List | Glossary On
Versions: 1 2 3 4 5 6 7 8 9 10 11 12 13 14 15 16 17 18 19 20 21 22 23 24 25 26 27 28 29 30 31 32 33 34 35 36 37 38 39 40 41 42 43 44 45 46 47 48 49 50
000
ASUS43 KFSD 250010
RWRFSD

WEATHER ROUNDUP FOR SE SOUTH DAKOTA/SW MINNESOTA/NW IOWA
NATIONAL WEATHER SERVICE SIOUX FALLS SD
700 PM CDT SAT JUN 24 2017

NOTE: "FAIR" INDICATES FEW OR NO CLOUDS BELOW 12,000 FEET WITH NO
SIGNIFICANT WEATHER AND OR OBSTRUCTIONS TO VISIBILITY.


SDZ038>040-050-052>070-250100-
SOUTHEAST SOUTH DAKOTA

CITY           SKY/WX    TMP DP  RH WIND       PRES   REMARKS
BROOKINGS      SUNNY     63  40  42 NW16G23   30.15R
CHAMBERLAIN    SUNNY     74  32  21 NW20G26   30.18S
6HR MIN TEMP:  72; 6HR MAX TEMP:  75;

HURON          SUNNY     67  38  34 N20G29    30.16R
6HR MIN TEMP:  67; 6HR MAX TEMP:  70;

MADISON        FAIR      63  39  42 NW23G29   30.15S
MITCHELL       SUNNY     71  40  32 N21G26    30.16R
6HR MIN TEMP:  70; 6HR MAX TEMP:  75;

SIOUX FALLS    MOSUNNY   68  43  40 NW18G31   30.13S
6HR MIN TEMP:  66; 6HR MAX TEMP:  71;

WINNER         FAIR      76  31  19 N21G28    30.19S
YANKTON        SUNNY     73  36  25 NW20G29   30.13S
$$

MNZ071-072-080-081-089-090-097-098-250100-
SOUTHWEST MINNESOTA

CITY           SKY/WX    TMP DP  RH WIND       PRES   REMARKS
FAIRMONT       MOSUNNY   65  41  41 NW17      30.10R
JACKSON        MOSUNNY   64  36  34 NW16G26   30.11R
LUVERNE        MOSUNNY   64  36  34 NW14G24   30.13S
MARSHALL       PTSUNNY   64  40  41 NW17G25   30.11R
6HR MIN TEMP:  62; 6HR MAX TEMP:  66;

MONTEVIDEO     CLOUDY    64  43  45 N15G21    30.11R
PIPESTONE      SUNNY     64  37  36 N16G23    30.13S
REDWOOD FALLS  PTSUNNY   64  40  41 NW17      30.08S
TRACY          PTSUNNY   64  42  44 NW14G20   30.12S
WINDOM         SUNNY     64  37  36 NW14G23   30.11R
WORTHINGTON    MOSUNNY   64  40  41 NW18G29   30.13R
$$

IAZ001>003-012>014-020>022-031-032-NEZ013-014-SDZ071-250100-
NORTHWEST IOWA

CITY           SKY/WX    TMP DP  RH WIND       PRES   REMARKS
CHEROKEE       SUNNY     70  37  30 NW13G22   30.11R
DENISON        SUNNY     75  41  29 NW17      30.11S
ESTHERVILLE    MOSUNNY   64  40  41 NW16      30.10R
LE MARS        SUNNY     72  36  26 NW17G25   30.12S
ORANGE CITY    SUNNY     70  43  37 NW13G20   30.12R
SHELDON        SUNNY     68  41  37 NW17G28   30.11R
SIOUX CITY     SUNNY     75  39  27 NW24      30.10R
6HR MIN TEMP:  74; 6HR MAX TEMP:  79;

SPENCER        SUNNY     68  40  35 NW22G30   30.11R
6HR MIN TEMP:  68; 6HR MAX TEMP:  75;

STORM LAKE     SUNNY     70  36  28 NW22G32   30.10S
$$

ABBREVIATIONS USED IN REMARKS
   TC - TEMPERATURE IN CELSIUS
  WCI - WIND CHILL INDEX
   HX - HEAT INDEX
  VSB - VISIBILITY




USA.gov is the U.S. government's official web portal to all federal, state and local government web resources and services.